Weather History for Opa Locka, FL

Change the Weather History Date:

Tuesday, November 19, 2013

  Actual Average Record
Temperature  
Mean Temperature 79 °F -  
Max Temperature 86 °F 82 °F 91 °F (1986)
Min Temperature 72 °F 66 °F 45 °F (1951)
Cooling Degree Days 14    
Growing Degree Days 29 (Base 50)    
Moisture  
Dew Point 71 °F    
Average Humidity 84    
Maximum Humidity 96    
Minimum Humidity 55    
Precipitation  
Precipitation 0.03 in - - ()
Sea Level Pressure  
Sea Level Pressure 29.93 in    
Wind  
Wind Speed 4 mph (NW)    
Max Wind Speed 10 mph    
Max Gust Speed -    
Visibility 10 miles    
Events Rain    
Averages and records for this station are not official NWS values.
T = Trace of Precipitation, MM = Missing Value Source: NWS Daily Summary

Daily Weather History Graph

Daily Weather History Graph

Search for Another Location

Airport:

Trip Planner

Search our weather history database for the weather conditions in past years. The results will help you decide how hot, cold, wet, or windy it might be!

Date:

Astronomy

Nov. 19, 2013 Rise Set
Actual Time 6:42 AM EST 5:30 PM EST
Civil Twilight 6:17 AM EST 5:55 PM EST
Nautical Twilight 5:49 AM EST 6:23 PM EST
Astronomical Twilight 5:22 AM EST 6:50 PM EST
Moon 7:22 PM EST (11/19) 8:18 AM EST (11/19)
Length of Visible Light 11h 37m
Length of Day
10h 48m
Waning Gibbous, 96% of the Moon is Illuminated
Nov 19
Waning Gibbous
Nov 25
Last Quarter
Dec 2
New
Dec 9
First Quarter
Dec 17
Full

Hourly Weather History & Observations

Time (EST) Temp. Heat Index Dew Point Humidity Pressure Visibility Wind Dir Wind Speed Gust Speed Precip Events Conditions
12:53 AM 75.9 °F - 71.1 °F 85% 29.93 in 10.0 mi SW 3.5 mph - N/A   Overcast
1:53 AM 75.0 °F - 71.1 °F 87% 29.92 in 10.0 mi West 4.6 mph - N/A   Clear
2:53 AM 73.9 °F - 70.0 °F 87% 29.91 in 10.0 mi Calm Calm - N/A   Scattered Clouds
3:53 AM 73.0 °F - 69.1 °F 87% 29.89 in 10.0 mi SSW 3.5 mph - N/A   Clear
4:53 AM 73.0 °F - 70.0 °F 90% 29.91 in 10.0 mi Calm Calm - N/A   Overcast
5:53 AM 72.0 °F - 69.1 °F 91% 29.91 in 10.0 mi WSW 3.5 mph - N/A   Scattered Clouds
6:53 AM 72.0 °F - 69.1 °F 91% 29.92 in 10.0 mi West 3.5 mph - N/A   Partly Cloudy
7:53 AM 75.0 °F - 71.1 °F 87% 29.94 in 10.0 mi West 3.5 mph - N/A   Mostly Cloudy
8:53 AM 75.9 °F - 71.1 °F 85% 29.95 in 10.0 mi NW 5.8 mph - N/A   Overcast
9:53 AM 78.1 °F - 71.1 °F 79% 29.96 in 10.0 mi NW 3.5 mph - N/A   Overcast
10:53 AM 79.0 °F - 72.0 °F 79% 29.96 in 10.0 mi Calm Calm - N/A   Overcast
11:13 AM 80.6 °F 84.6 °F 71.6 °F 74% 29.95 in 10.0 mi NNW 9.2 mph - N/A   Overcast
11:21 AM 80.6 °F 84.6 °F 71.6 °F 74% 29.95 in 10.0 mi NNW 8.1 mph - N/A   Overcast
11:53 AM 82.0 °F 86.3 °F 71.1 °F 69% 29.94 in 10.0 mi NNW 5.8 mph - N/A   Mostly Cloudy
12:53 PM 82.0 °F 85.9 °F 70.0 °F 67% 29.91 in 10.0 mi NW 5.8 mph - N/A   Clear
1:53 PM 84.9 °F 87.6 °F 66.9 °F 55% 29.88 in 10.0 mi North 4.6 mph - N/A   Scattered Clouds
2:53 PM 86.0 °F 90.1 °F 69.1 °F 57% 29.87 in 10.0 mi NNE 5.8 mph - N/A   Overcast
3:53 PM 81.0 °F 84.4 °F 70.0 °F 69% 29.87 in 10.0 mi East 10.4 mph - N/A   Mostly Cloudy
4:53 PM 79.0 °F - 69.1 °F 72% 29.88 in 10.0 mi East 4.6 mph - N/A   Scattered Clouds
5:53 PM 77.0 °F - 73.0 °F 88% 29.90 in 10.0 mi ENE 10.4 mph - 0.02 in Rain Light Rain
6:46 PM 75.2 °F - 73.4 °F 94% 29.92 in 10.0 mi ENE 4.6 mph - 0.00 in   Mostly Cloudy
6:53 PM 75.9 °F - 73.0 °F 91% 29.93 in 10.0 mi ENE 5.8 mph - 0.00 in   Mostly Cloudy
7:00 PM 75.2 °F - 73.4 °F 94% 29.93 in 10.0 mi ENE 5.8 mph - N/A   Scattered Clouds
7:53 PM 75.9 °F - 72.0 °F 87% 29.95 in 10.0 mi SSE 3.5 mph - 0.00 in Rain Light Rain
8:53 PM 75.9 °F - 73.0 °F 91% 29.95 in 10.0 mi Calm Calm - 0.00 in   Mostly Cloudy
9:38 PM 75.2 °F - 73.4 °F 94% 29.95 in 10.0 mi WSW 3.5 mph - 0.00 in Rain Light Rain
9:50 PM 75.2 °F - 73.4 °F 94% 29.96 in 10.0 mi West 5.8 mph - 0.00 in Rain Light Rain
9:53 PM 75.0 °F - 73.0 °F 94% 29.96 in 10.0 mi West 6.9 mph - 0.01 in Rain Light Rain
10:36 PM 73.4 °F - 71.6 °F 94% 29.95 in 10.0 mi WNW 8.1 mph - 0.00 in   Overcast
10:53 PM 73.9 °F - 72.0 °F 93% 29.96 in 10.0 mi NW 6.9 mph - 0.00 in   Mostly Cloudy
11:01 PM 73.4 °F - 71.6 °F 94% 29.96 in 10.0 mi NNW 4.6 mph - N/A   Scattered Clouds
11:53 PM 73.0 °F - 72.0 °F 96% 29.95 in 10.0 mi Calm Calm - N/A   Clear